KERMIT1 LFLI-LSGG

Flight info

Callsign KERMIT1
Flight time 0h -5m
Altitude 8000
Route LSGG
Aircraft CH47/L-SDFGRY/C

Departure

Time 2026-05-04 18:44
Airport Annemasse Airfield (LFLI)

Arrival

Time 2026-05-04 18:39
Airport Geneva International Airport (LSGG)
Time Latitude Longitude Altitude Speed Heading
2026-05-04 18:39 46.19490 6.26629 1595 ft 0 kts 232°
2026-05-04 18:40 46.19484 6.26624 1594 ft 1 kts 100°
2026-05-04 18:40 46.19487 6.26640 1596 ft 3 kts 321°
2026-05-04 18:40 46.19495 6.26626 1595 ft 0 kts 243°
2026-05-04 18:43 46.19489 6.26608 1602 ft 13 kts 244°
2026-05-04 18:43 46.19471 6.26522 1587 ft 4 kts 348°
2026-05-04 18:43 46.19525 6.26472 1586 ft 12 kts 271°
2026-05-04 18:43 46.19455 6.26375 1581 ft 15 kts 214°
2026-05-04 18:44 46.19369 6.26368 1580 ft 14 kts 116°
2026-05-04 18:44 46.19353 6.26410 1581 ft 14 kts 119°
2026-05-04 18:44 46.19045 6.27304 2478 ft 115 kts 114°
2026-05-04 18:44 46.18975 6.28584 2295 ft 136 kts 98°
2026-05-04 18:45 46.18537 6.28586 2500 ft 116 kts 284°
2026-05-04 18:45 46.19003 6.27375 1666 ft 149 kts 303°
2026-05-04 18:45 46.19399 6.26434 1875 ft 59 kts 330°
2026-05-04 18:45 46.19618 6.26090 1778 ft 21 kts 170°
2026-05-04 18:46 46.19512 6.26228 1685 ft 28 kts 74°
2026-05-04 18:46 46.19495 6.26306 1618 ft 3 kts 20°
2026-05-04 18:46 46.19496 6.26334 1597 ft 1 kts 333°
2026-05-04 18:46 46.19493 6.26332 1579 ft 0 kts 335°
2026-05-04 18:51 46.19495 6.26332 1580 ft 3 kts 337°
2026-05-04 18:51 46.19496 6.26331 1579 ft 0 kts 340°
2026-05-04 18:52 46.19503 6.26322 1600 ft 9 kts 216°
2026-05-04 18:52 46.19318 6.26487 1729 ft 51 kts 144°
2026-05-04 18:53 46.18987 6.26822 1930 ft 70 kts 154°
2026-05-04 18:53 46.18436 6.27293 1720 ft 121 kts 153°
2026-05-04 18:53 46.17807 6.28014 1928 ft 117 kts 143°
2026-05-04 18:53 46.17061 6.28421 2129 ft 115 kts 181°
2026-05-04 18:54 46.16363 6.28230 2652 ft 75 kts 208°
2026-05-04 18:54 46.16068 6.28009 3239 ft 23 kts 214°
2026-05-04 18:54 46.16101 6.27877 3087 ft 50 kts 328°
2026-05-04 18:54 46.16573 6.27129 2186 ft 135 kts 319°
2026-05-04 18:55 46.17229 6.26052 2060 ft 148 kts 317°
2026-05-04 18:55 46.18647 6.24159 2313 ft 136 kts 347°
2026-05-04 18:55 46.19581 6.24043 2402 ft 137 kts
2026-05-04 18:56 46.20558 6.24223 2403 ft 141 kts 12°
2026-05-04 18:56 46.21498 6.24412 2606 ft 131 kts 17°
2026-05-04 18:56 46.22414 6.24763 2531 ft 143 kts 20°
2026-05-04 18:56 46.23437 6.24999 2457 ft 148 kts 11°
2026-05-04 18:57 46.24247 6.24388 2712 ft 137 kts 308°
2026-05-04 18:57 46.24192 6.22972 2521 ft 154 kts 252°
2026-05-04 18:57 46.23569 6.21684 2424 ft 156 kts 240°
2026-05-04 18:57 46.22930 6.20494 2549 ft 145 kts 239°
2026-05-04 18:58 46.22346 6.19289 2511 ft 149 kts 244°
2026-05-04 18:58 46.21959 6.17918 2564 ft 145 kts 261°
2026-05-04 18:58 46.21755 6.16542 2618 ft 143 kts 266°
2026-05-04 18:58 46.21641 6.15083 2613 ft 144 kts 274°
2026-05-04 18:59 46.21964 6.13867 2625 ft 122 kts 330°
2026-05-04 18:59 46.22729 6.13676 2508 ft 111 kts 18°
2026-05-04 18:59 46.23376 6.14003 2575 ft 79 kts 27°
2026-05-04 18:59 46.23645 6.14334 2609 ft 34 kts 121°
2026-05-04 19:00 46.23466 6.14539 2551 ft 29 kts 237°
2026-05-04 19:00 46.23323 6.14399 2463 ft 32 kts 250°
2026-05-04 19:00 46.23156 6.14070 2396 ft 51 kts 250°
2026-05-04 19:00 46.22913 6.13633 2311 ft 58 kts 239°
2026-05-04 19:01 46.22621 6.13244 2412 ft 55 kts 231°
2026-05-04 19:01 46.22306 6.12875 2494 ft 58 kts 225°
2026-05-04 19:01 46.22208 6.12541 2600 ft 32 kts 26°
2026-05-04 19:01 46.22385 6.12879 2570 ft 43 kts 62°
2026-05-04 19:02 46.22475 6.13232 2644 ft 21 kts 84°
2026-05-04 19:02 46.22462 6.13480 2285 ft 75 kts 73°